[[{"header":{"parameterUnit":"m.s-1","parameterCategory":1,"la1":30.2991,"la2":30.254,"lo1":-89.0895,"lo2":-89.0444,"dy":0.0017,"dx":0.0017,"nx":28,"ny":28,"refTime":"2023-08-28T03:00:00:Z","depth":0,"parameterNumber":2,"parameterNumberName":"U-component_of_WINDS"},"data":[0,0,0,0,0,0,0,0,0,0,0,0,0,0,0,0,0,0,0,0,0,0,0,0,0,0,0,0,0,0,0,0,0,0,0,0,0,0,0,0,0,0,0,0,0,0,0,0,0,0,0,0,0,0,0,0,0,0,0.1246,0.1246,0,0.12,0.12,0.1199,0.1223,0.1224,0.1225,0.1227,0.1172,0.1169,0.1167,0,0,0,0,0,0,0,0,0,0,0,0,0,0.1347,0.1345,0.1246,0.1246,0.1245,0.12,0.12,0.1199,0.1223,0.1224,0.1226,0.1227,0.1173,0.117,0.1167,0,0,0,0,0,0,0,0,0,0,0,0,0,0.1302,0.1344,0.1247,0.1252,0.1252,0.12,0.12,0.1199,0.1222,0.1224,0.1226,0.1228,0.1174,0.117,0.1166,0.1104,0,0,0.1154,0.1152,0,0,0,0,0,0,0,0,0.1305,0.1298,0.1252,0.1252,0.1251,0.1219,0.1215,0.1167,0.1222,0.1233,0.1227,0.1229,0.1186,0.1181,0.1168,0.1102,0.1099,0.1154,0.1151,0.115,0.1149,0,0,0,0,0,0,0,0.1308,0.13,0.1228,0.1251,0.1251,0.1254,0.125,0.1206,0.1199,0.1233,0.1234,0.1229,0.1186,0.1172,0.1167,0.1099,0.1154,0.115,0.1148,0.1146,0.0976,0.0973,0,0,0,0,0,0,0.1312,0.1303,0.1229,0.1227,0.1283,0.1251,0.1246,0.1228,0.12,0.1198,0.1227,0.123,0.1177,0.1171,0.1165,0.1089,0.115,0.1146,0.1144,0.0978,0.0975,0.0973,0,0,0,0,0,0,0.1314,0.1305,0.1231,0.1265,0.1256,0.1247,0.1226,0.1226,0.1212,0.1196,0.1194,0.1214,0.1179,0.117,0.1119,0.1087,0.1144,0.1141,0.098,0.0977,0.0974,0.0937,0,0,0,0,0,0,0.1317,0.1306,0.1284,0.1265,0.1254,0.1189,0.1224,0.1223,0.1206,0.1209,0.1183,0.1181,0.1179,0.1125,0.1115,0.1083,0.1138,0.0983,0.0979,0.0975,0.0941,0.0932,0.0926,0,0,0,0,0,0.132,0.1274,0.1283,0.1274,0.1228,0.1187,0.1181,0.1182,0.1203,0.118,0.1169,0.1182,0.1092,0.1119,0.1109,0.1074,0.0985,0.098,0.0975,0.0944,0.0934,0.0926,0,0,0,0,0,0,0.1288,0.1272,0.1281,0.1229,0.1209,0.1191,0.1162,0.1172,0.1144,0.1148,0.1148,0.1142,0.1088,0.1076,0.1107,0.1011,0.1041,0.1034,0.1021,0.1012,0.1004,0.1008,0.1134,0,0,0,0,0,0.1276,0.1247,0.1233,0.1187,0.1177,0.1171,0.1154,0.1156,0.1135,0.1126,0.1112,0.1089,0.1055,0.1033,0.1002,0.0939,0.0932,0.091,0.0903,0.0897,0.089,0.0852,0.0842,0.0957,0.0957,0.0957,0,0,0.1248,0.1236,0.1217,0.1181,0.1166,0.1133,0.1164,0.1128,0.1103,0.112,0.1071,0.1059,0.1033,0.0975,0.0949,0.0963,0.0856,0.089,0.0886,0.0882,0.0846,0.0835,0.0826,0.0953,0.0954,0.0954,0,0,0.1181,0.117,0.113,0.1115,0.1093,0.1089,0.1079,0.1059,0.1052,0.1004,0.1015,0.0983,0.0926,0.0906,0.0888,0.0812,0.0821,0.0801,0.0761,0.0725,0.0716,0.0708,0.0677,0.0667,0.0795,0.0795,0.0794,0,0.1149,0.1103,0.1108,0.1071,0.1053,0.1069,0.1026,0.101,0.0978,0.0964,0.0981,0.0908,0.0892,0.0828,0.0809,0.0796,0.0781,0.0804,0.0717,0.0709,0.0701,0.0673,0.0662,0.0792,0.0792,0.0793,0.0793,0,0.1063,0.103,0.1,0.097,0.0949,0.0909,0.0905,0.0883,0.0887,0.088,0.0827,0.0808,0.0772,0.0757,0.076,0.0692,0.0702,0.0718,0.0748,0.0688,0.0661,0.065,0.0789,0.079,0.079,0.0791,0,0,0.0975,0.0948,0.0937,0.0922,0.0898,0.0871,0.0831,0.0797,0.0776,0.0753,0.0717,0.0667,0.0681,0.0661,0.0662,0.063,0.0567,0.065,0.0649,0.0633,0.0488,0.0474,0.0462,0.0573,0.0571,0.057,0.0489,0,0.0905,0.0837,0.0839,0.0774,0.0742,0.0756,0.072,0.07,0.0691,0.066,0.065,0.0614,0.0637,0.0625,0.0594,0.0581,0.0537,0.0587,0.0536,0.0534,0.0541,0.0448,0.0434,0.0359,0.0479,0.0477,0.0476,0,0.0814,0.0789,0.0722,0.0701,0.0687,0.0655,0.0623,0.0595,0.057,0.0566,0.0543,0.0548,0.0502,0.0535,0.047,0.0504,0.0483,0.0473,0.047,0.0464,0.05,0.0437,0.0335,0.0323,0.0459,0.0461,0.0462,0,0.0753,0.0703,0.0656,0.0643,0.0618,0.0595,0.0582,0.056,0.0539,0.051,0.0495,0.0461,0.0441,0.0412,0.0406,0.0431,0.0341,0.0373,0.0333,0.0333,0.0312,0.0313,0.0203,0.0302,0.0302,0.0302,0.0303,0,0.0674,0.0631,0.0628,0.0599,0.055,0.0552,0.0503,0.0492,0.0472,0.0438,0.0447,0.0414,0.0409,0.0374,0.0369,0.0315,0.0306,0.0299,0.0297,0.0297,0.0297,0.0282,0.0286,0.0299,0.03,0.0301,0.0301,0,0.0598,0.0595,0.0543,0.0524,0.0518,0.0482,0.0464,0.0434,0.0427,0.0383,0.0373,0.036,0.0319,0.031,0.0261,0.0257,0.0192,0.0197,0.0201,0.0201,0.016,0.0163,0.0035,0.0017,0.0129,0.0128,0.0127,0,0.0547,0.0514,0.0492,0.0471,0.0458,0.0424,0.0403,0.0402,0.0379,0.0347,0.032,0.0281,0.0249,0.0182,0.0166,0.0127,0.013,0.0087,0.0124,0.0123,0.0126,0.0127,0.0122,0.008,0.0079,0.0078,0.0077,0,0.0455,0.0454,0.0425,0.0394,0.0369,0.0344,0.032,0.0301,0.0297,0.0269,0.0229,0.0204,0.0154,0.0113,0.0075,0.0058,0.0065,0.0066,0.0054,0.0052,0.0055,0.005,0.018,0.0068,0.0069,0.007,0.007,0.0071,0.0388,0.0359,0.0338,0.0304,0.0286,0.0263,0.0234,0.0223,0.019,0.0151,0.0152,0.0106,0.0079,0.0028,0.0009,-0.0029,-0.0017,-0.0033,-0.0038,-0.0042,-0.0047,0.0063,-0.0036,-0.0036,-0.0036,-0.0036,-0.0035,0,0.0294,0.0282,0.0251,0.0218,0.019,0.0202,0.0175,0.015,0.0111,0.0087,0.0055,0.0006,-0.0034,-0.0053,-0.0094,-0.0121,-0.0119,-0.0132,-0.0131,-0.0136,-0.0055,-0.0042,-0.0133,-0.0133,-0.0133,-0.0133,-0.0133,-0.0133,0.0243,0.0194,0.019,0.0131,0.0118,0.0075,0.0059,0.0036,0.0016,-0.0037,-0.007,-0.0081,-0.0105,-0.0148,-0.0186,-0.0191,-0.0207,-0.0222,-0.0226,-0.0151,-0.0141,-0.0132,-0.0119,-0.0225,-0.0226,-0.0304,-0.0305,-0.0306]},{"header":{"parameterUnit":"m.s-1","parameterCategory":1,"la1":30.2991,"la2":30.254,"lo1":-89.0895,"lo2":-89.0444,"dy":0.0017,"dx":0.0017,"nx":28,"ny":28,"refTime":"2023-08-28T03:00:00:Z","depth":0,"parameterNumber":3,"parameterNumberName":"V-component_of_WINDS"},"data":[0,0,0,0,0,0,0,0,0,0,0,0,0,0,0,0,0,0,0,0,0,0,0,0,0,0,0,0,0,0,0,0,0,0,0,0,0,0,0,0,0,0,0,0,0,0,0,0,0,0,0,0,0,0,0,0,0,0,1.6782,1.6784,0,1.6994,1.6996,1.6999,1.7139,1.714,1.7141,1.7142,1.7354,1.7358,1.7363,0,0,0,0,0,0,0,0,0,0,0,0,0,1.6488,1.6492,1.6781,1.6784,1.6787,1.6994,1.6997,1.6999,1.7139,1.714,1.7141,1.7142,1.7352,1.7358,1.7364,0,0,0,0,0,0,0,0,0,0,0,0,0,1.6649,1.6494,1.6781,1.6881,1.6893,1.6993,1.6997,1.7,1.7139,1.714,1.7141,1.7143,1.735,1.7357,1.7364,1.738,0,0,1.7386,1.7389,0,0,0,0,0,0,0,0,1.664,1.666,1.6864,1.6875,1.6887,1.7042,1.6971,1.7127,1.7138,1.7045,1.7142,1.7143,1.7248,1.7264,1.7301,1.739,1.7399,1.7387,1.7391,1.7394,1.7396,0,0,0,0,0,0,0,1.6628,1.6651,1.6866,1.6867,1.6881,1.6913,1.6937,1.7001,1.7136,1.7053,1.7064,1.7087,1.7255,1.7293,1.7307,1.7402,1.7387,1.7393,1.7397,1.74,1.7509,1.7507,0,0,0,0,0,0,1.6602,1.6641,1.6859,1.6872,1.6765,1.6917,1.6944,1.6991,1.7136,1.7159,1.7086,1.7093,1.728,1.7298,1.7315,1.7339,1.7394,1.7401,1.7405,1.751,1.7508,1.7507,0,0,0,0,0,0,1.6595,1.662,1.685,1.6759,1.6791,1.6921,1.6971,1.6994,1.7033,1.7161,1.7185,1.7101,1.7282,1.7305,1.7362,1.7348,1.7404,1.7411,1.7512,1.7509,1.7508,1.7389,0,0,0,0,0,0,1.6586,1.6617,1.6627,1.6759,1.6795,1.6896,1.6971,1.6997,1.7045,1.7057,1.7181,1.7203,1.7285,1.735,1.7369,1.7359,1.7416,1.7513,1.7511,1.7508,1.7395,1.7383,1.7373,0,0,0,0,0,1.6575,1.6585,1.6627,1.6652,1.6811,1.6895,1.6916,1.7012,1.7044,1.7053,1.7134,1.7199,1.7347,1.7355,1.7377,1.7369,1.7515,1.7511,1.7508,1.7399,1.7385,1.7373,0,0,0,0,0,0,1.6448,1.6605,1.6652,1.6706,1.6786,1.6919,1.6934,1.6995,1.7067,1.7074,1.7189,1.7215,1.7259,1.7321,1.7327,1.7389,1.7438,1.7439,1.7347,1.7335,1.7325,1.7308,1.7422,0,0,0,0,0,1.6427,1.6485,1.6617,1.6651,1.6689,1.6803,1.6844,1.6911,1.6998,1.7032,1.7118,1.7198,1.7262,1.7303,1.7369,1.7404,1.743,1.7409,1.7398,1.7388,1.7387,1.7405,1.7395,1.7496,1.7496,1.7496,0,0,1.6382,1.6475,1.6504,1.6628,1.6698,1.6752,1.6832,1.6887,1.6927,1.7041,1.7099,1.7164,1.7261,1.7305,1.7329,1.7357,1.7365,1.7384,1.7376,1.738,1.74,1.7391,1.7382,1.7494,1.7495,1.7495,0,0,1.6328,1.6406,1.6441,1.6508,1.6613,1.6689,1.6696,1.6819,1.6867,1.6928,1.7012,1.706,1.717,1.7233,1.728,1.7243,1.7304,1.7262,1.7205,1.722,1.7212,1.7206,1.7189,1.7182,1.7261,1.726,1.726,0,1.626,1.6347,1.645,1.6499,1.6548,1.6653,1.6686,1.6747,1.6867,1.6897,1.6927,1.7063,1.7136,1.7194,1.7185,1.722,1.7229,1.7248,1.7206,1.72,1.7195,1.718,1.7174,1.7254,1.7255,1.7255,1.7256,0,1.6254,1.6313,1.6328,1.6441,1.6492,1.6533,1.6638,1.6677,1.6737,1.6808,1.6865,1.6955,1.7039,1.7058,1.7119,1.7123,1.7137,1.7185,1.7236,1.7178,1.7165,1.7161,1.7245,1.7248,1.7249,1.7251,0,0,1.613,1.6296,1.6299,1.6349,1.647,1.6516,1.6558,1.6642,1.667,1.6748,1.6784,1.6871,1.6915,1.6967,1.7035,1.7049,1.7008,1.7095,1.7098,1.7072,1.7013,1.6974,1.6966,1.7049,1.7049,1.7048,1.7004,0,1.6092,1.6176,1.6267,1.6318,1.637,1.6468,1.6505,1.658,1.6646,1.6697,1.677,1.6828,1.6883,1.6915,1.6933,1.7009,1.6997,1.7014,1.708,1.7081,1.705,1.6961,1.6922,1.6875,1.7,1.6999,1.6999,0,1.606,1.6132,1.6188,1.6299,1.6324,1.6356,1.6436,1.6485,1.657,1.6617,1.6672,1.6744,1.6789,1.6834,1.6896,1.6905,1.6937,1.6977,1.6978,1.6986,1.7035,1.6963,1.6864,1.6855,1.6993,1.6993,1.6994,0,1.5958,1.6069,1.6116,1.6156,1.6288,1.6306,1.6362,1.6449,1.6491,1.656,1.6587,1.666,1.67,1.6753,1.6839,1.6866,1.6889,1.6944,1.6925,1.6923,1.6925,1.6924,1.6826,1.695,1.695,1.695,1.695,0,1.5905,1.5934,1.6071,1.6099,1.6133,1.6235,1.6265,1.6329,1.6404,1.6444,1.6533,1.6567,1.6681,1.6728,1.6796,1.6833,1.6851,1.6887,1.6904,1.6878,1.6872,1.6899,1.6903,1.6948,1.6949,1.6949,1.6949,0,1.5797,1.5891,1.5947,1.6066,1.6096,1.6115,1.6215,1.6244,1.6313,1.6361,1.6378,1.6486,1.6545,1.6637,1.6724,1.6769,1.6793,1.6824,1.6764,1.6774,1.6749,1.6749,1.6663,1.6655,1.6786,1.6784,1.6783,0,1.5756,1.5781,1.5901,1.5934,1.5986,1.6038,1.6081,1.6181,1.6221,1.6317,1.6332,1.6398,1.6456,1.6544,1.6629,1.6694,1.6724,1.669,1.6735,1.6705,1.6719,1.6715,1.6716,1.6679,1.6677,1.6675,1.6674,0,1.5672,1.5716,1.5775,1.5847,1.5895,1.5958,1.6024,1.6045,1.6159,1.6198,1.626,1.6304,1.6391,1.6453,1.6529,1.6582,1.6644,1.6659,1.6658,1.6629,1.6592,1.6608,1.6732,1.666,1.6662,1.6663,1.6664,1.6664,1.5595,1.5619,1.5705,1.5766,1.5826,1.5884,1.5916,1.5988,1.6041,1.612,1.6175,1.6231,1.631,1.6418,1.6468,1.6511,1.6539,1.6538,1.6537,1.6534,1.6522,1.6587,1.6525,1.6526,1.6526,1.6527,1.6527,0,1.5512,1.5571,1.5626,1.5715,1.5761,1.5817,1.5892,1.5926,1.5974,1.6044,1.6098,1.6165,1.6224,1.6311,1.6377,1.6394,1.6423,1.6407,1.6405,1.6415,1.6496,1.6489,1.6381,1.6381,1.6381,1.6381,1.6381,1.6381,1.5474,1.5516,1.5568,1.5639,1.5698,1.5754,1.5791,1.5844,1.5899,1.597,1.602,1.6077,1.6151,1.6222,1.6277,1.6301,1.6319,1.6292,1.6324,1.6397,1.6411,1.6423,1.6417,1.6296,1.6296,1.624,1.624,1.6239]}]]